Location: Newark
(43.9494°N, 6.8108°E)
Time: 10:12:41
(UTC+00:00)

Explorer 7 - All Passes

Search period start: 16 October 2019 00:00
Search period end: 26 October 2019 00:00
Orbit: 485 x 680 km, 50.3° (Epoch: 15 October)

Date Brightness Start Highest point End Pass type
(mag) Time Alt. Az. Time Alt. Az. Time Alt. Az.
16 Oct - 11:22:06 10° S 11:24:59 21° SE 11:27:55 10° E daylight
16 Oct - 13:01:23 10° WSW 13:05:08 73° NNW 13:09:01 10° ENE daylight
16 Oct - 14:42:33 10° WNW 14:46:03 32° N 14:49:41 10° ENE daylight
16 Oct - 16:23:25 10° WNW 16:27:11 41° NNE 16:31:08 10° E daylight
16 Oct - 18:03:50 10° WNW 18:07:51 63° SSW 18:12:08 10° SE visible
16 Oct - 19:46:03 10° WSW 19:47:50 12° SW 19:49:40 10° SSW visible
17 Oct - 11:26:24 10° SSW 11:29:49 34° SE 11:33:17 10° ENE daylight
17 Oct - 13:06:31 10° W 13:10:12 52° NNW 13:14:00 10° ENE daylight
17 Oct - 14:47:46 10° WNW 14:51:14 31° N 14:54:51 10° ENE daylight
17 Oct - 16:28:26 10° WNW 16:32:17 51° NNE 16:36:23 10° E daylight
17 Oct - 18:08:57 10° WNW 18:12:47 40° SW 18:16:51 10° SSE visible
18 Oct - 11:31:03 10° SW 11:34:43 56° SE 11:38:26 10° ENE daylight
18 Oct - 13:11:44 10° W 13:15:19 40° NNW 13:19:00 10° ENE daylight
18 Oct - 14:52:55 10° WNW 14:56:26 32° N 15:00:04 10° ENE daylight
18 Oct - 16:33:25 10° WNW 16:37:21 70° NNE 16:41:32 10° ESE daylight
18 Oct - 18:14:13 10° W 18:17:39 26° SW 18:21:14 10° SSE visible
19 Oct - 09:57:26 10° S 09:59:41 15° SE 10:01:56 10° E daylight
19 Oct - 11:35:56 10° WSW 11:39:41 87° SSE 11:43:29 10° ENE daylight
19 Oct - 13:16:59 10° WNW 13:20:28 34° N 13:24:03 10° ENE daylight
19 Oct - 14:58:01 10° WNW 15:01:36 36° NNE 15:05:20 10° E daylight
19 Oct - 16:38:25 10° WNW 16:42:23 82° SSW 16:46:34 10° ESE daylight
19 Oct - 18:19:50 10° W 18:22:28 16° SW 18:25:10 10° S visible
20 Oct - 10:01:22 10° SSW 10:04:28 25° SE 10:07:35 10° E daylight
20 Oct - 11:40:59 10° WSW 11:44:42 64° NNW 11:48:29 10° ENE daylight
20 Oct - 13:22:14 10° WNW 13:25:38 31° N 13:29:09 10° ENE daylight
20 Oct - 15:03:02 10° NW 15:06:44 43° NNE 15:10:36 10° E daylight
20 Oct - 16:43:28 10° WNW 16:47:20 54° SW 16:51:25 10° SE daylight
21 Oct - 10:05:47 10° SSW 10:09:20 40° SE 10:12:52 10° ENE daylight
21 Oct - 11:46:09 10° W 11:49:47 47° NNW 11:53:28 10° ENE daylight
21 Oct - 13:27:26 10° WNW 13:30:50 31° N 13:34:20 10° ENE daylight
21 Oct - 15:08:02 10° WNW 15:11:50 56° NNE 15:15:49 10° ESE daylight
21 Oct - 16:48:38 10° WNW 16:52:14 34° SW 16:56:01 10° SSE daylight
22 Oct - 08:33:26 10° SE 08:34:23 11° SE 08:35:20 10° ESE daylight
22 Oct - 10:10:31 10° SW 10:14:15 65° SSE 10:17:59 10° ENE daylight
22 Oct - 11:51:23 10° W 11:54:54 37° NNW 11:58:29 10° NE daylight
22 Oct - 13:32:33 10° WNW 13:36:01 32° N 13:39:34 10° ENE daylight
22 Oct - 15:13:00 10° WNW 15:16:53 78° NNE 15:20:56 10° ESE daylight
22 Oct - 16:54:00 10° W 16:57:05 22° SW 17:00:17 10° S daylight
23 Oct - 08:36:28 10° S 08:39:08 18° SE 08:41:46 10° E daylight
23 Oct - 10:15:27 10° WSW 10:19:14 82° NNW 10:23:00 10° ENE daylight
23 Oct - 11:56:38 10° WNW 12:00:03 32° N 12:03:32 10° ENE daylight
23 Oct - 13:37:37 10° NW 13:41:10 37° NNE 13:44:50 10° E daylight
23 Oct - 15:18:01 10° WNW 15:21:52 72° SSW 15:25:54 10° SE daylight
23 Oct - 16:59:53 10° WSW 17:01:52 13° SW 17:03:53 10° SSW visible
24 Oct - 08:40:37 10° SSW 08:43:57 29° SE 08:47:15 10° ENE daylight
24 Oct - 10:20:33 10° WSW 10:24:16 57° NNW 10:27:59 10° ENE daylight
24 Oct - 12:01:52 10° WNW 12:05:14 30° N 12:08:39 10° ENE daylight
24 Oct - 13:42:37 10° NW 13:46:17 45° NNE 13:50:05 10° E daylight
24 Oct - 15:23:06 10° WNW 15:26:48 45° SW 15:30:40 10° SE daylight
25 Oct - 08:45:09 10° SW 08:48:50 47° SE 08:52:28 10° ENE daylight
25 Oct - 10:25:44 10° W 10:29:21 43° NNW 10:32:58 10° NE daylight
25 Oct - 12:07:02 10° WNW 12:10:25 30° N 12:13:51 10° ENE daylight
25 Oct - 13:47:36 10° WNW 13:51:22 61° NNE 13:55:16 10° ESE daylight
25 Oct - 15:28:19 10° W 15:31:41 28° SW 15:35:10 10° SSE daylight
